Home > Weather > Kãnpur > Past weeks

Flag for India Weather for the Past 2 Weeks in Kãnpur, Uttar Pradesh, India

Now
55 °F

Fog.


Feels Like: 55 °F
Forecast: 54 / 75 °F
Wind: No wind

Location: Lucknow / Amausi

Current Time: Feb 9, 2016 at 5:04:43 AM

Latest Report: Feb 9, 2016 at 4:00 AM


Visibility: 0 mi

Pressure: 29.95 "Hg

Humidity: 94%

Dew point: 54 °F

Location of KãnpurLocation

Historic Weather in Kãnpur — Graph

°F

Kãnpur Temperature Yesterday

Maximum temperature yesterday: 75 °F (at 1:30 PM)
Minimum temperature yesterday: 59 °F (at 11:00 PM)
Average temperature yesterday: 70 °F

High & Low Weather Summary for the Past Weeks

 TemperatureHumidityPressure
High82 °F (Jan 31, 2:00 PM)100% (Jan 25, 4:00 AM)30.09 "Hg (Jan 25, 4:00 AM)
Low41 °F (Jan 25, 6:30 AM)29% (Feb 2, 1:30 PM)29.86 "Hg (Jan 30, 3:00 PM)
Average64 °F65%29.98 "Hg
* Reported Jan 25 3:00 AM — Feb 9 3:00 AM, Kãnpur, Weather by CustomWeather, © 2016

Note: Actual official high and low records may vary slightly from our data, if they occured in-between our weather recording intervals... More about our weather records

Advertising

Kãnpur Weather History for the Previous 24 Hours

 ConditionsComfort  
Time TempWeatherWind HumidityBarometerVisibility
3:00 AM
Tue, Feb 9
57 °FFog.No wind94%29.95 "Hg1 mi
2:00 AM57 °FFog.No wind94%29.95 "Hg1 mi
1:00 AM57 °FFog.2 mph94%29.98 "Hg1 mi
11:00 PM
Mon, Feb 8
59 °FFog.3 mph94%29.98 "Hg1 mi
10:00 PM63 °FFog.3 mph88%29.98 "Hg1 mi
9:00 PM64 °FFog.No wind83%29.98 "Hg1 mi
8:30 PM64 °FHaze.2 mph83%29.98 "Hg1 mi
8:00 PM66 °FHaze.3 mph78%29.98 "Hg1 mi
7:30 PM68 °FHaze.9 mph73%29.98 "Hg1 mi
7:00 PM68 °FHaze.7 mph78%29.95 "Hg1 mi
6:30 PM68 °FHaze.5 mph78%29.95 "Hg1 mi
6:00 PM70 °FHaze.5 mph73%29.95 "Hg1 mi
5:00 PM73 °FHaze.6 mph65%29.95 "Hg1 mi
4:30 PM75 °FHaze.6 mph61%29.92 "Hg2 mi
4:00 PM75 °FHaze.7 mph61%29.92 "Hg2 mi
3:30 PM75 °FHaze.7 mph61%29.92 "Hg2 mi
3:00 PM75 °FHaze.6 mph61%29.95 "Hg2 mi
2:30 PM75 °FHaze.3 mph57%29.95 "Hg1 mi
1:30 PM75 °FHaze.2 mph57%29.95 "Hg1 mi
1:00 PM73 °FHaze.3 mph61%29.98 "Hg1 mi
12:30 PM72 °FHaze.5 mph65%29.98 "Hg1 mi
12:00 PM72 °FHaze.7 mph61%30.01 "Hg1 mi
11:30 AM70 °FHaze.3 mph64%30.01 "Hg1 mi
11:00 AM68 °FFog.3 mph69%30.01 "Hg1 mi
10:30 AM66 °FFog.No wind78%30.04 "Hg1 mi
Weather by CustomWeather, © 2016

See weather overviewHow to use our weather pages